This is the latest recevied weather packets stored in our database for station/object K5IDL. If no packets are shown the sender has not sent any weather packets the latest 1 day(s).
| Time | Temp. | Humidity | Pressure | Rain* | Wind** | Luminosity | Snow |
|---|---|---|---|---|---|---|---|
| 1778026967 | 25° C | 67% | 1006.5 hPa | 0 mm | 0 m/s | 11 W/m² | - |
| 1778026663 | 25° C | 67% | 1006.6 hPa | 0 mm | 0 m/s | 14 W/m² | - |
| 1778026361 | 25.56° C | 66% | 1006.6 hPa | 0 mm | 0 m/s | 14 W/m² | - |
| 1778026058 | 26.11° C | 64% | 1006.3 hPa | 0 mm | 0 m/s | 20 W/m² | - |
| 1778025755 | 26.11° C | 64% | 1006 hPa | 0 mm | 0 m/s | 33 W/m² | - |
| 1778025452 | 26.67° C | 63% | 1006 hPa | 0 mm | 0.45 m/s, 253° | 31 W/m² | - |
| 1778025150 | 26.67° C | 63% | 1005.9 hPa | 0 mm | 0 m/s | 19 W/m² | - |
| 1778024847 | 26.67° C | 63% | 1006.1 hPa | 0 mm | 0.45 m/s, 51° | 20 W/m² | - |
| 1778024544 | 27.22° C | 62% | 1006.2 hPa | 0 mm | 0.45 m/s, 284° | 20 W/m² | - |
| 1778024240 | 27.78° C | 61% | 1005.8 hPa | 0 mm | 0.45 m/s, 260° | 39 W/m² | - |
| 1778023939 | 27.78° C | 60% | 1005.9 hPa | 0 mm | 0.45 m/s, 16° | 41 W/m² | - |
| 1778023635 | 28.33° C | 59% | 1005.8 hPa | 0 mm | 0.45 m/s, 173° | 31 W/m² | - |
| 1778023333 | 28.89° C | 58% | 1005.7 hPa | 0 mm | 0.45 m/s, 32° | 39 W/m² | - |
| 1778023029 | 29.44° C | 55% | 1005.6 hPa | 0 mm | 0 m/s | 42 W/m² | - |
| 1778022728 | 30° C | 51% | 1005.5 hPa | 0 mm | 0 m/s | 41 W/m² | - |
| 1778022426 | 30° C | 51% | 1005.3 hPa | 0 mm | 0.45 m/s, 5° | 59 W/m² | - |
| 1778022122 | 30° C | 50% | 1005.1 hPa | 0 mm | 0.45 m/s, 173° | 54 W/m² | - |
| 1778021819 | 30° C | 49% | 1005 hPa | 0 mm | 0.45 m/s, 282° | 57 W/m² | - |
| 1778021515 | 30.56° C | 48% | 1005.2 hPa | 0 mm | 0.45 m/s, 7° | 50 W/m² | - |
| 1778021211 | 31.11° C | 47% | 1005.2 hPa | 0 mm | 0.45 m/s, 57° | 57 W/m² | - |
| 1778020909 | 31.11° C | 47% | 1004.9 hPa | 0 mm | 0.89 m/s, 255° | 64 W/m² | - |
| 1778020607 | 31.67° C | 47% | 1005.1 hPa | 0 mm | 0.45 m/s, 262° | 63 W/m² | - |
| 1778020302 | 32.22° C | 53% | 1004.6 hPa | 0 mm | 0 m/s | 54 W/m² | - |
| 1778019998 | 32.22° C | 53% | 1004.4 hPa | 0 mm | 0 m/s | 60 W/m² | - |
| 1778019695 | 32.22° C | 53% | 1004.5 hPa | 0 mm | 0.45 m/s, 298° | 58 W/m² | - |
* Rain latest hour (hover to see other rain measurements)
** Current wind speed in m/s (hover to see current wind gust speed)